TimeCDT,TemperatureF,Dew PointF,Humidity,Sea Level PressureIn,VisibilityMPH,Wind Direction,Wind SpeedMPH,Gust SpeedMPH,PrecipitationIn,Events,Conditions,WindDirDegrees,DateUTC
12:15 AM,51.8,50.2,94,30.10,5.0,Calm,Calm,-,N/A,,Clear,0,2013-09-27 05:15:00
12:35 AM,51.4,50.2,95,30.11,0.5,Calm,Calm,-,N/A,Fog,Fog,0,2013-09-27 05:35:00
12:55 AM,51.1,49.8,95,30.11,0.2,Calm,Calm,-,N/A,Fog,Fog,0,2013-09-27 05:55:00
1:15 AM,52.3,51.3,96,30.11,3.0,Calm,Calm,-,N/A,,Scattered Clouds,0,2013-09-27 06:15:00
1:35 AM,50.5,49.5,96,30.12,3.0,Calm,Calm,-,N/A,,Clear,0,2013-09-27 06:35:00
1:55 AM,51.1,50.0,96,30.12,0.5,Calm,Calm,-,N/A,Fog,Fog,0,2013-09-27 06:55:00
2:15 AM,50.2,48.9,95,30.12,10.0,ESE,4.6,-,N/A,,Clear,110,2013-09-27 07:15:00
2:35 AM,52.0,48.2,87,30.12,10.0,ESE,3.5,-,N/A,,Clear,120,2013-09-27 07:35:00
2:55 AM,54.1,47.8,79,30.12,10.0,Calm,Calm,-,N/A,,Clear,0,2013-09-27 07:55:00
3:15 AM,54.5,47.3,77,30.12,10.0,Calm,Calm,-,N/A,,Clear,0,2013-09-27 08:15:00
3:35 AM,54.3,46.4,75,30.13,10.0,Calm,Calm,-,N/A,,Clear,0,2013-09-27 08:35:00
3:55 AM,54.0,45.3,73,30.13,10.0,Calm,Calm,-,N/A,,Clear,0,2013-09-27 08:55:00
4:15 AM,54.1,45.3,72,30.14,10.0,Calm,Calm,-,N/A,,Clear,0,2013-09-27 09:15:00
4:35 AM,53.2,45.0,73,30.14,10.0,Calm,Calm,-,N/A,,Clear,0,2013-09-27 09:35:00
4:55 AM,53.1,45.5,75,30.14,10.0,Calm,Calm,-,N/A,,Clear,0,2013-09-27 09:55:00
5:15 AM,51.8,45.9,80,30.15,10.0,Calm,Calm,-,N/A,,Clear,0,2013-09-27 10:15:00
5:35 AM,52.2,45.5,78,30.15,10.0,Calm,Calm,-,N/A,,Clear,0,2013-09-27 10:35:00
5:55 AM,52.0,45.0,77,30.16,10.0,ESE,3.5,-,N/A,,Clear,110,2013-09-27 10:55:00
6:15 AM,51.3,44.2,77,30.16,10.0,ESE,3.5,-,N/A,,Clear,120,2013-09-27 11:15:00
6:35 AM,49.8,43.3,78,30.16,10.0,Calm,Calm,-,N/A,,Clear,0,2013-09-27 11:35:00
6:55 AM,49.1,43.0,79,30.16,10.0,SE,3.5,-,N/A,,Clear,130,2013-09-27 11:55:00
7:15 AM,50.0,44.2,81,30.17,10.0,SE,3.5,-,N/A,,Clear,130,2013-09-27 12:15:00
7:35 AM,53.6,46.6,77,30.18,10.0,Calm,Calm,-,N/A,,Clear,0,2013-09-27 12:35:00
7:55 AM,55.9,47.7,74,30.18,10.0,SE,4.6,-,N/A,,Clear,140,2013-09-27 12:55:00
8:15 AM,58.1,47.5,68,30.18,10.0,SSE,4.6,-,N/A,,Clear,150,2013-09-27 13:15:00
8:35 AM,60.1,47.5,63,30.18,10.0,SE,5.8,-,N/A,,Scattered Clouds,140,2013-09-27 13:35:00
8:55 AM,62.2,48.0,60,30.18,10.0,SE,5.8,-,N/A,,Scattered Clouds,140,2013-09-27 13:55:00
9:15 AM,64.4,48.0,55,30.18,10.0,ESE,3.5,-,N/A,,Clear,110,2013-09-27 14:15:00
9:35 AM,66.0,48.0,52,30.18,10.0,SE,5.8,-,N/A,,Clear,140,2013-09-27 14:35:00
9:55 AM,68.4,49.1,50,30.18,10.0,SE,5.8,-,N/A,,Clear,140,2013-09-27 14:55:00
10:15 AM,69.8,47.8,46,30.18,10.0,SSE,5.8,-,N/A,,Clear,160,2013-09-27 15:15:00
10:35 AM,71.8,48.6,44,30.18,10.0,SSE,4.6,-,N/A,,Clear,150,2013-09-27 15:35:00
10:55 AM,72.9,48.6,42,30.18,10.0,ESE,6.9,-,N/A,,Clear,120,2013-09-27 15:55:00
11:15 AM,74.3,48.9,41,30.18,10.0,SE,4.6,-,N/A,,Clear,130,2013-09-27 16:15:00
11:35 AM,75.6,49.3,39,30.17,10.0,SE,6.9,-,N/A,,Clear,130,2013-09-27 16:35:00
11:55 AM,76.3,50.2,40,30.17,10.0,SE,3.5,-,N/A,,Clear,140,2013-09-27 16:55:00
12:15 PM,77.0,50.0,39,30.16,10.0,SE,4.6,-,N/A,,Clear,140,2013-09-27 17:15:00
12:35 PM,77.5,50.0,38,30.15,10.0,East,6.9,-,N/A,,Clear,100,2013-09-27 17:35:00
12:55 PM,77.9,49.5,37,30.15,10.0,SSE,3.5,-,N/A,,Clear,150,2013-09-27 17:55:00
1:15 PM,78.4,49.3,36,30.14,10.0,ESE,9.2,-,N/A,,Clear,110,2013-09-27 18:15:00
1:35 PM,78.8,49.1,35,30.13,10.0,East,6.9,-,N/A,,Clear,100,2013-09-27 18:35:00
1:55 PM,79.2,48.2,34,30.13,10.0,East,9.2,-,N/A,,Clear,100,2013-09-27 18:55:00
2:15 PM,79.3,47.8,33,30.12,10.0,SE,6.9,-,N/A,,Clear,140,2013-09-27 19:15:00
2:35 PM,79.9,47.5,32,30.11,10.0,East,9.2,-,N/A,,Clear,100,2013-09-27 19:35:00
2:55 PM,80.2,45.7,30,30.11,10.0,ESE,10.4,-,N/A,,Clear,120,2013-09-27 19:55:00
3:15 PM,80.2,44.8,29,30.10,10.0,East,10.4,-,N/A,,Clear,100,2013-09-27 20:15:00
3:35 PM,80.8,44.2,27,30.10,10.0,ESE,9.2,-,N/A,,Clear,110,2013-09-27 20:35:00
3:55 PM,80.6,42.4,26,30.09,10.0,ESE,10.4,-,N/A,,Clear,120,2013-09-27 20:55:00
4:15 PM,80.4,42.3,26,30.09,10.0,ESE,10.4,-,N/A,,Clear,120,2013-09-27 21:15:00
4:35 PM,79.7,42.3,26,30.09,10.0,ESE,5.8,-,N/A,,Clear,110,2013-09-27 21:35:00
4:55 PM,79.0,43.7,29,30.09,10.0,ESE,9.2,-,N/A,,Clear,110,2013-09-27 21:55:00
5:15 PM,78.3,43.3,29,30.08,10.0,ESE,10.4,-,N/A,,Clear,110,2013-09-27 22:15:00
5:35 PM,77.2,43.2,30,30.09,10.0,ESE,6.9,-,N/A,,Clear,110,2013-09-27 22:35:00
5:55 PM,75.6,43.3,32,30.09,10.0,ESE,6.9,-,N/A,,Clear,120,2013-09-27 22:55:00
6:15 PM,73.0,43.0,34,30.09,10.0,ESE,8.1,-,N/A,,Clear,110,2013-09-27 23:15:00
6:35 PM,70.5,42.8,37,30.08,10.0,East,8.1,-,N/A,,Clear,100,2013-09-27 23:35:00
6:55 PM,68.5,42.8,39,30.08,10.0,East,8.1,-,N/A,,Clear,100,2013-09-27 23:55:00
7:15 PM,67.1,43.2,42,30.09,10.0,ESE,5.8,-,N/A,,Clear,110,2013-09-28 00:15:00
7:35 PM,65.7,43.9,45,30.08,10.0,ESE,6.9,-,N/A,,Clear,110,2013-09-28 00:35:00
7:55 PM,65.3,44.4,47,30.09,10.0,ESE,5.8,-,N/A,,Clear,110,2013-09-28 00:55:00
8:15 PM,64.8,44.6,48,30.09,10.0,ESE,5.8,-,N/A,,Clear,120,2013-09-28 01:15:00
8:35 PM,63.5,44.8,51,30.10,10.0,ESE,5.8,-,N/A,,Clear,120,2013-09-28 01:35:00
8:55 PM,62.6,45.5,54,30.10,10.0,ESE,6.9,-,N/A,,Clear,120,2013-09-28 01:55:00
9:15 PM,62.4,45.7,54,30.10,10.0,ESE,4.6,-,N/A,,Clear,120,2013-09-28 02:15:00
9:35 PM,62.4,45.5,54,30.10,10.0,ESE,4.6,-,N/A,,Clear,120,2013-09-28 02:35:00
9:55 PM,61.9,45.0,54,30.10,10.0,ESE,3.5,-,N/A,,Clear,120,2013-09-28 02:55:00
10:15 PM,61.7,45.1,55,30.10,10.0,ESE,5.8,-,N/A,,Clear,120,2013-09-28 03:15:00
10:35 PM,60.8,45.5,57,30.10,10.0,ESE,4.6,-,N/A,,Clear,120,2013-09-28 03:35:00
10:55 PM,59.7,45.7,60,30.10,10.0,ESE,3.5,-,N/A,,Clear,120,2013-09-28 03:55:00
11:15 PM,59.4,45.7,61,30.10,10.0,ESE,4.6,-,N/A,,Clear,120,2013-09-28 04:15:00
11:35 PM,59.0,46.2,63,30.10,10.0,ESE,3.5,-,N/A,,Clear,120,2013-09-28 04:35:00
11:55 PM,59.2,46.8,63,30.11,10.0,SE,4.6,-,N/A,,Clear,130,2013-09-28 04:55:00